Creek Data

    Home     View Charts     View Raw Data     Messages

ID Distance Battery Voltage Battery Current Internal Temp Internal Humidity External Temp Solar Input rssi snr Time Stamp Record
66499 13.9 3.89 -5 42 51 43 0 -69 8 02/17/2026 02:30 AM 49316
66498 13.9 3.78 -5 42 51 43 0.1 -70 8 02/17/2026 02:15 AM 49315
66497 13.9 3.78 -5 42 51 42 0 -70 8 02/17/2026 02:00 AM 49314
66496 13.9 3.78 -5 42 51 43 0 -70 9 02/17/2026 01:45 AM 49313
66495 13.9 3.77 -5 42 51 42 0 -70 8 02/17/2026 01:30 AM 49312
66494 14.0 3.77 -5 42 51 43 0 -69 8 02/17/2026 01:15 AM 49311
66493 14.0 3.77 -5 42 51 44 0 -70 8 02/17/2026 01:00 AM 49310
66492 14.0 3.78 -5 43 51 45 0 -69 8 02/17/2026 12:45 AM 49309
66491 14.0 3.78 -5 42 52 44 0 -71 9 02/17/2026 12:30 AM 49308
66490 14.1 3.89 -5 42 52 43 0 -70 8 02/17/2026 12:15 AM 49307
66489 14.1 3.77 -5 43 52 45 0.1 -70 8 02/17/2026 12:00 AM 49306
66488 14.1 3.90 -5 43 52 44 0 -70 9 02/16/2026 11:45 PM 49305
66487 14.2 3.78 -5 44 52 45 0 -69 8 02/16/2026 11:30 PM 49304
66486 14.2 3.78 -5 45 52 45 0 -70 9 02/16/2026 11:15 PM 49303
66485 14.2 3.78 -5 46 52 46 0 -70 8 02/16/2026 11:00 PM 49302
66484 14.3 3.90 -5 46 52 47 0 -70 8 02/16/2026 10:30 PM 49300
66483 14.3 3.78 -5 46 52 46 0.1 -70 8 02/16/2026 10:15 PM 49299
66482 14.4 3.78 -5 46 52 47 0 -69 8 02/16/2026 10:00 PM 49298
66481 14.4 3.90 -5 46 52 46 0 -68 8 02/16/2026 09:45 PM 49297
66480 14.4 3.90 -5 46 52 46 0 -71 8 02/16/2026 09:30 PM 49296
66479 14.4 3.78 -5 46 52 46 0 -69 8 02/16/2026 09:15 PM 49295
66478 14.4 3.78 -5 46 52 47 0 -69 8 02/16/2026 09:00 PM 49294
66477 14.4 3.78 -5 46 52 47 0 -78 6 02/16/2026 08:45 PM 49293
66476 14.5 3.78 -5 46 52 47 0 -84 8 02/16/2026 08:30 PM 49292
66475 14.5 3.90 -5 46 52 47 0 -70 8 02/16/2026 08:15 PM 49291